EW0349 Weather Reports


time (UTC)temp
C
wind
direction
speed
KPH
gust
KPH
rain 1hr
cm
rain 24hr
cm
rain mn
cm
humidity
%
barometer
mb
20260902230043 13 277 4.8 12.9 0.15 0.76 0.76 100 1006.9
20260902224532 13 174 3.2 25.7 0.08 0.69 0.69 100 1006.9
20260902223028 13 161 3.2 14.5 0.03 0.64 0.64 100 1006.8
20260902221523 13 202 3.2 12.9 0.03 0.61 0.61 100 1006.7
20260902220025 13 203 3.2 11.3 0.03 0.61 0.61 100 1006.7
20260902214532 13 223 4.8 12.9 0.03 0.61 0.61 100 1006.8
20260902213009 13 201 3.2 12.9 0.03 0.61 0.61 100 1006.7
20260902211506 13 249 3.2 9.7 0.03 0.58 0.58 100 1006.6
20260902204557 13 200 4.8 20.9 0.03 0.58 0.58 100 1006.4
20260902203052 13 192 3.2 11.3 0.03 0.58 0.58 100 1006.3
20260902201549 13 108 1.6 9.7 0.03 0.56 0.56 100 1006.1
20260902200044 13 204 0.0 8.0 0.05 0.56 0.56 100 1006.0
20260902194539 13 192 0.0 14.5 0.08 0.56 0.56 100 1006.0
20260902193035 13 216 3.2 14.5 0.13 0.56 0.56 100 1006.0
20260902191530 13 177 3.2 9.7 0.15 0.53 0.53 100 1005.9
20260902190026 13 215 0.0 12.9 0.28 0.51 0.51 100 1005.8
20260902184522 13 207 0.0 8.0 0.28 0.48 0.48 100 1006.0
20260902183017 13 207 0.0 6.4 0.23 0.43 0.43 100 1006.3
20260902181512 13 232 1.6 6.4 0.20 0.38 0.38 100 1006.5
20260902180010 13 355 0.0 9.7 0.10 0.23 0.23 100 1006.3
20260902174505 13 190 1.6 9.7 0.13 0.20 0.20 100 1006.5
20260902173133 13 252 0.0 6.4 0.18 0.20 0.20 100 1006.7
20260902171605 13 236 1.6 9.7 0.18 0.18 0.18 100 1006.9
20260902170057 13 202 1.6 14.5 0.13 0.13 0.13 11 1006.9
20260902164554 13 161 3.2 9.7 0.08 0.08 0.08 22 1006.8
20260902163046 14 175 1.6 4.8 0.03 0.03 0.03 32 1006.6
20260902161546 15 198 0.0 6.4 0.00 0.00 0.00 36 1006.4
20260902160059 15 179 0.0 3.2 0.00 0.00 0.00 39 1006.3
20260902154546 15 178 0.0 3.2 0.00 0.00 0.00 41 1006.4
20260902153043 15 196 1.6 6.4 0.00 0.00 0.00 44 1006.7
20260902151540 15 210 0.0 6.4 0.00 0.00 0.00 44 1006.8
20260902150036 14 198 1.6 6.4 0.00 0.00 0.00 38 1006.9
20260902144534 13 170 0.0 1.6 0.00 0.00 0.00 27 1007.0
20260902143038 13 170 0.0 0.0 0.00 0.00 0.00 25 1007.1
20260902141538 13 170 0.0 1.6 0.00 0.00 0.00 27 1007.1
20260902140033 13 170 0.0 0.0 0.00 0.00 0.00 27 1007.2
20260902134531 13 170 0.0 0.0 0.00 0.00 0.00 28 1007.3
20260902133035 13 170 0.0 0.0 0.00 0.00 0.00 31 1007.7
20260902131527 13 170 0.0 0.0 0.00 0.00 0.00 31 1007.8
20260902130024 13 170 0.0 3.2 0.00 0.00 0.00 34 1008.1
20260902124526 13 170 0.0 0.0 0.00 0.00 0.00 35 1008.3
20260902123022 13 170 0.0 1.6 0.00 0.00 0.00 39 1008.5
20260902121520 14 170 0.0 0.0 0.00 0.00 0.00 43 1008.7
20260902120022 14 170 0.0 0.0 0.00 0.00 0.00 45 1008.8
20260902114525 14 170 0.0 4.8 0.00 0.00 0.00 44 1009.0
20260902113015 14 142 0.0 1.6 0.00 0.00 0.00 43 1009.3
20260902111514 14 142 0.0 3.2 0.00 0.00 0.00 41 1009.5
20260902110012 13 135 0.0 6.4 0.00 0.00 0.00 36 1009.6
20260902104517 13 253 0.0 4.8 0.00 0.00 0.00 26 1009.8
20260902103008 13 234 0.0 0.0 0.00 0.00 0.00 22 1010.1
20260902101508 13 234 0.0 0.0 0.00 0.00 0.00 24 1010.1
20260902100005 12 234 0.0 0.0 0.00 0.00 0.00 24 1010.2
20260902094503 12 234 0.0 0.0 0.00 0.00 0.00 26 1010.3
20260902093000 12 234 0.0 0.0 0.00 0.00 0.00 29 1010.4
20260902091612 13 234 0.0 0.0 0.00 0.00 0.00 33 1010.6
20260902090056 13 234 0.0 1.6 0.00 0.00 0.00 35 1010.6
20260902084554 13 180 0.0 3.2 0.00 0.00 0.00 38 1010.9
20260902083055 13 180 0.0 0.0 0.00 0.00 0.00 42 1010.9
20260902081550 13 180 0.0 1.6 0.00 0.00 0.00 46 1011.0
20260902080050 13 180 0.0 4.8 0.00 0.00 0.00 48 1011.1
20260902074546 14 136 0.0 8.0 0.00 0.00 0.00 48 1011.0
20260902073048 14 215 0.0 4.8 0.00 0.00 0.00 49 1011.0
20260902071548 14 205 0.0 8.0 0.00 0.00 0.00 50 1011.2
20260902070047 14 286 0.0 8.0 0.00 0.00 0.00 47 1011.3
20260902064541 14 203 0.0 6.4 0.00 0.00 0.00 45 1011.6
20260902063034 15 203 0.0 8.0 0.00 0.00 0.00 45 1011.7
20260902061527 15 124 0.0 8.0 0.00 0.00 0.00 45 1011.7
20260902060023 15 213 1.6 9.7 0.00 0.00 0.00 45 1011.9
20260902054517 15 155 0.0 8.0 0.00 0.00 0.00 46 1012.0
20260902053015 15 192 1.6 8.0 0.00 0.00 0.00 46 1012.0
20260902051511 15 252 0.0 6.4 0.00 0.00 0.00 46 1012.1
20260902050008 15 210 0.0 1.6 0.00 0.00 0.00 47 1012.0
20260902044600 15 209 0.0 4.8 0.00 0.00 0.00 47 1012.1
20260902043100 15 179 0.0 4.8 0.00 0.00 0.00 48 1012.0
20260902041558 15 178 0.0 3.2 0.00 0.00 0.00 49 1011.9
20260902040050 15 178 0.0 0.0 0.00 0.00 0.00 49 1012.0
20260902034543 15 178 1.6 4.8 0.00 0.00 0.00 50 1011.9
20260902033039 15 178 0.0 6.4 0.00 0.00 0.00 51 1011.9
20260902031534 15 178 0.0 3.2 0.00 0.00 0.00 52 1011.9
20260902030030 15 257 0.0 3.2 0.00 0.00 0.00 54 1011.8
20260902024525 16 275 0.0 4.8 0.00 0.00 0.00 55 1011.7
20260902023020 16 291 0.0 6.4 0.00 0.00 0.00 55 1011.7
20260902021516 16 221 0.0 9.7 0.00 0.00 0.00 55 1011.7
20260902020019 16 216 3.2 8.0 0.00 0.00 0.00 55 1011.8
20260902014509 16 194 3.2 9.7 0.00 0.00 0.00 54 1011.6
20260902013008 15 184 1.6 4.8 0.00 0.00 0.00 52 1011.6
20260902011603 15 292 0.0 9.7 0.00 0.00 0.00 53 1011.6
20260902010054 16 248 1.6 17.7 0.00 0.00 0.00 56 1011.6
20260902004550 16 191 3.2 11.3 0.00 0.00 0.00 60 1011.6
20260902003046 17 288 1.6 11.3 0.00 0.00 0.00 61 1011.3
20260902001541 17 266 1.6 20.9 0.00 0.00 0.00 61 1011.2
20260902000138 18 284 1.6 6.4 0.00 0.00 0.00 59 1011.0
20260901234531 18 316 0.0 11.3 0.00 0.00 0.00 59 1010.9
20260901233027 18 284 3.2 12.9 0.00 0.00 0.00 58 1011.1
20260901231523 18 267 3.2 6.4 0.00 0.00 0.00 58 1011.1